Showing default

FLOCK 4G 36, 62675

Orbit data source: Space-Track

FLOCK 4G 36, 62675 is a payload satellite owned by Planet (US) in SSO that was launched on Tue, 14 Jan 2025 UTC via an FALCON 9 launch vehicle from the Air Force Western Test Range (AFWTR). Payload-class satellites include a variety of spacecraft equipped with specific instruments for various scientific and technological missions. These include communications satellites like Starlink; space stations such as the ISS; scientific satellites like the Hubble; Earth observation satellites from companies like Planet Labs, Umbra, and HawkEye 360; GPS; miniature CubeSats for education and research; and military/defense satellites.

Loading next visibility...
Identifier
62675, 2025-009BU
Orbit
SSO
Country
Flag of USUS
Related business
Manufacturer
Planet
Mission
Operational Commercial Imaging
Bus & Motor
CUBESAT 3U, Unknown motor
Mass
5.7 kg wet, 5.7 kg dry
Launch date (UTC)
2025-01-14 (1 year ago)
Launch vehicle
FALCON 9
Launch site
Air Force Western Test Range (AFWTR)
Object type
Payload
Rocket body
Debris
Shape & HBR
Box + 2 Pan, 1.0 m
Radar Cross Section
0.072 m², Medium (>0.1 m² and < 1m²)

Expand to show TLE details & history
Last TLE update: 1 day ago

TLE from 1 day ago
0 FLOCK 4G 36
1 62675U 25009BU  26170.77756880  .00007604  00000-0  26976-3 0  9996
2 62675  97.4012 252.5033 0003214 322.2356  37.8659 15.29345267 79293
Epoch: 2026-06-19T18:39Z
TLE epoch observation values (Epoch: 2026-06-19T18:39:41.944Z)
Latitude
0.00006°
Longitude
64.57685°
Altitude
479.132 km
Speed
7.627 km/s
True Right ascension
16h 50m 00s
True Declination
0° 00' 00"
Sunlit
Object was in full shadow at epoch
Visualization orbit readout
Latitude
Unknown
Longitude
Unknown
Altitude
Unknown
Speed
Unknown
Apparent Right ascension
Unknown
Apparent Declination
Unknown
Sunlit
N/A
Visualization observer readout
Local Sidereal Time
08:41:53
Azimuth
Unknown
Elevation
Unknown
Doppler factor
Unknown
Orbital elements
Apogee altitude
476.924 km
Perigee altitude
472.519 km
Semi-major axis
6,852.859 km
Eccentricity
0.00032
Inclination
97.4012°
RAAN
252.5033°
Arg. of periapsis
322.2356°
True anomaly
37.88851°
Mean anomaly
37.8659°
Eccentric anomaly
37.87721°
Mean motion
3.82592 °/min
Orbital period
94.1 mins
BSTAR
0.00026976
Loading maneuver chart data...
Computing Atmospheric mass density...
Loading historical data...
Loading historical data...
Loading historical data...
Loading historical data...
Loading historical data...
Loading historical data...
Loading historical data...

Documentation

Showing up to 5 results
|